Sokodé Airport

Jump to: basic info | weather | comments

Related pages: nearby airports | nearby navaids | notams | map

Basic information (top)

Codes: DXSK
Location: lon 8.983000, lat 1.150000, elev 1,214 ft / 370 m msl
Status: small_airport
Scheduled airline service: no
Links: Wikipedia Mobile

Weather (top)

Current conditions (rec'd 2014/12/23 00:00Z):

DXSK 230000Z 00000KT 8000 NSC 21/11 Q////

Airport forecast for Niamtougou International Airport 47nm (87km) N (rec'd 2014/12/22 18:27Z):

TAF TAF DXNG 221700Z 2218/2318 VRB03KT 7000 NSC 
      BECMG 2305/2307 08005G15KT

Latest comments (top)

No comments yet for Sokodé Airport

More... (top)

See also NOTAMs and nearby airports and navaids, or visit the Sokodé Airport page at the main OurAirports website..